Terminal Aerodrome Forecast
Issued by NWS

Home | Current Version | Previous Version | Text Only | Print | Product List | Glossary On
Versions: 1 2 3 4 5 6 7 8 9 10 11 12 13 14 15 16 17 18 19 20
000
FTUS44 KSJT 191700
TAFSOA
TAF
KSOA 191739Z 1918/2018 13005KT P6SM BKN015
     FM191900 14007KT P6SM VCTS SCT025 BKN035CB
     FM192100 14007KT P6SM BKN040
     FM200900 16004KT 6SM BR OVC007
     FM201600 16007KT P6SM OVC015=

USA.gov is the U.S. government's official web portal to all federal, state and local government web resources and services.